contact:dominique.lefevre@mio.osupytheas.fr, maurice.libes@osupytheas.fr, didier.mallarino@osupytheas.fr
Project:EMSO http://www.emso-fr.org/EMSO-France
Depth: 2436.0 m
Title:EMSO Ligure Ouest : Data MII capteur CSTAR
DateTime,Latitude,Longitude,Instrument_Serial,Reference_Counts,Signal_Counts,Corrected_Signal_raw_counts,Calculated_Beam_c_inverse_meters,Internal_thermistor_counts
DateTime,Latitude,Longitude,Instrument_Serial,Reference_Counts,Signal_Counts,Corrected_Signal_raw_counts,Calculated_Beam_c_inverse_meters,Internal_thermistor_counts
2022-07-07T00:01:34,42.805,6.029,CST-1368DR,4671,5185,11827,01.112,551
2022-07-07T00:04:36,42.805,6.029,CST-1368DR,4671,5196,11851,01.104,551
2022-07-07T00:07:37,42.805,6.029,CST-1368DR,4671,5196,11852,01.103,551
2022-07-07T00:10:39,42.805,6.029,CST-1368DR,4671,5191,11841,01.107,551
2022-07-07T00:13:40,42.805,6.029,CST-1368DR,4671,5191,11841,01.107,551
2022-07-07T00:16:42,42.805,6.029,CST-1368DR,4671,5211,11885,01.092,551
2022-07-07T00:19:44,42.805,6.029,CST-1368DR,4671,5181,11818,01.115,551
2022-07-07T00:22:45,42.805,6.029,CST-1368DR,4671,5179,11814,01.116,551
2022-07-07T00:25:47,42.805,6.029,CST-1368DR,4671,5175,11803,01.120,551
2022-07-07T00:28:48,42.805,6.029,CST-1368DR,4671,5183,11822,01.113,551
2022-07-07T00:31:50,42.805,6.029,CST-1368DR,4671,5176,11807,01.118,551
2022-07-07T00:34:51,42.805,6.029,CST-1368DR,4671,5191,11839,01.108,551
2022-07-07T00:37:53,42.805,6.029,CST-1368DR,4671,5196,11851,01.104,551
2022-07-07T00:40:55,42.805,6.029,CST-1368DR,4671,5184,11825,01.112,551
2022-07-07T00:43:56,42.805,6.029,CST-1368DR,4671,5190,11839,01.108,551
2022-07-07T00:46:58,42.805,6.029,CST-1368DR,4671,5199,11858,01.101,551
2022-07-07T00:49:59,42.805,6.029,CST-1368DR,4671,5187,11830,01.111,551
2022-07-07T00:53:01,42.805,6.029,CST-1368DR,4671,5189,11835,01.109,551
2022-07-07T00:56:03,42.805,6.029,CST-1368DR,4671,5183,11822,01.113,551
2022-07-07T00:59:04,42.805,6.029,CST-1368DR,4671,5184,11824,01.113,551
2022-07-07T01:02:06,42.805,6.029,CST-1368DR,4671,5188,11834,01.109,551
2022-07-07T01:05:07,42.805,6.029,CST-1368DR,4671,5185,11826,01.112,551
2022-07-07T01:08:09,42.805,6.029,CST-1368DR,4671,5188,11833,01.110,551
2022-07-07T01:11:10,42.805,6.029,CST-1368DR,4671,5185,11826,01.112,551
2022-07-07T01:14:12,42.805,6.029,CST-1368DR,4671,5200,11860,01.100,551
2022-07-07T01:17:14,42.805,6.029,CST-1368DR,4671,5196,11852,01.103,551
2022-07-07T01:20:15,42.805,6.029,CST-1368DR,4671,5195,11850,01.104,551
2022-07-07T01:23:17,42.805,6.029,CST-1368DR,4671,5191,11839,01.108,551
2022-07-07T01:26:18,42.805,6.029,CST-1368DR,4671,5193,11844,01.106,551
2022-07-07T01:29:20,42.805,6.029,CST-1368DR,4671,5176,11806,01.119,551
2022-07-07T01:32:21,42.805,6.029,CST-1368DR,4671,5175,11803,01.120,551
2022-07-07T01:35:23,42.805,6.029,CST-1368DR,4671,5172,11796,01.122,551
2022-07-07T01:38:25,42.805,6.029,CST-1368DR,4671,5195,11848,01.105,551
2022-07-07T01:41:26,42.805,6.029,CST-1368DR,4671,5173,11799,01.121,551
2022-07-07T01:44:28,42.805,6.029,CST-1368DR,4671,5177,11809,01.118,551
2022-07-07T01:47:29,42.805,6.029,CST-1368DR,4671,5173,11799,01.121,551
2022-07-07T01:50:31,42.805,6.029,CST-1368DR,4671,5181,11818,01.115,551
2022-07-07T01:53:33,42.805,6.029,CST-1368DR,4671,5195,11850,01.104,551
2022-07-07T01:56:34,42.805,6.029,CST-1368DR,4671,5177,11809,01.118,551
2022-07-07T01:59:36,42.805,6.029,CST-1368DR,4671,5172,11797,01.122,551
2022-07-07T02:02:37,42.805,6.029,CST-1368DR,4671,5163,11777,01.129,551
2022-07-07T02:05:39,42.805,6.029,CST-1368DR,4671,5175,11803,01.120,551
2022-07-07T02:08:40,42.805,6.029,CST-1368DR,4671,5188,11834,01.109,551
2022-07-07T02:11:42,42.805,6.029,CST-1368DR,4671,5179,11812,01.117,551
2022-07-07T02:14:44,42.805,6.029,CST-1368DR,4671,5179,11814,01.116,551
2022-07-07T02:17:45,42.805,6.029,CST-1368DR,4671,5168,11789,01.125,551
2022-07-07T02:20:47,42.805,6.029,CST-1368DR,4671,5166,11782,01.127,551
2022-07-07T02:23:48,42.805,6.029,CST-1368DR,4671,5169,11790,01.124,551
2022-07-07T02:26:50,42.805,6.029,CST-1368DR,4671,5175,11805,01.119,551
2022-07-07T02:29:51,42.805,6.029,CST-1368DR,4670,5169,11792,01.123,551
2022-07-07T02:32:53,42.805,6.029,CST-1368DR,4670,5163,11780,01.128,551
2022-07-07T02:35:55,42.805,6.029,CST-1368DR,4670,5164,11782,01.127,551
2022-07-07T02:38:56,42.805,6.029,CST-1368DR,4671,5193,11845,01.106,551
2022-07-07T02:41:58,42.805,6.029,CST-1368DR,4670,5161,11774,01.130,551
2022-07-07T02:44:59,42.805,6.029,CST-1368DR,4670,5160,11773,01.130,551
2022-07-07T02:48:01,42.805,6.029,CST-1368DR,4670,5162,11776,01.129,551
2022-07-07T02:51:03,42.805,6.029,CST-1368DR,4670,5160,11772,01.130,551
2022-07-07T02:54:04,42.805,6.029,CST-1368DR,4670,5163,11778,01.128,551
2022-07-07T02:57:06,42.805,6.029,CST-1368DR,4670,5161,11775,01.129,551
2022-07-07T03:00:07,42.805,6.029,CST-1368DR,4670,5161,11774,01.130,551
2022-07-07T03:03:09,42.805,6.029,CST-1368DR,4670,5158,11768,01.132,551
2022-07-07T03:06:10,42.805,6.029,CST-1368DR,4670,5164,11781,01.127,551
2022-07-07T03:09:12,42.805,6.029,CST-1368DR,4670,5165,11783,01.127,551
2022-07-07T03:12:14,42.805,6.029,CST-1368DR,4670,5165,11784,01.126,551
2022-07-07T03:15:15,42.805,6.029,CST-1368DR,4670,5163,11780,01.128,551
2022-07-07T03:18:17,42.805,6.029,CST-1368DR,4670,5165,11784,01.126,551
2022-07-07T03:21:18,42.805,6.029,CST-1368DR,4670,5164,11780,01.128,551
2022-07-07T03:24:20,42.805,6.029,CST-1368DR,4670,5164,11780,01.128,551
2022-07-07T03:27:21,42.805,6.029,CST-1368DR,4670,5163,11778,01.128,551
2022-07-07T03:30:23,42.805,6.029,CST-1368DR,4670,5162,11777,01.129,551
2022-07-07T03:33:25,42.805,6.029,CST-1368DR,4670,5162,11777,01.129,551
2022-07-07T03:36:26,42.805,6.029,CST-1368DR,4670,5163,11780,01.128,551
2022-07-07T03:39:28,42.805,6.029,CST-1368DR,4670,5163,11778,01.128,551
2022-07-07T03:42:29,42.805,6.029,CST-1368DR,4670,5159,11769,01.131,551
2022-07-07T03:45:31,42.805,6.029,CST-1368DR,4670,5164,11781,01.127,551
2022-07-07T03:48:33,42.805,6.029,CST-1368DR,4670,5157,11765,01.133,551
2022-07-07T03:51:34,42.805,6.029,CST-1368DR,4670,5164,11781,01.127,551
2022-07-07T03:54:36,42.805,6.029,CST-1368DR,4670,5166,11786,01.126,551
2022-07-07T03:57:37,42.805,6.029,CST-1368DR,4670,5167,11788,01.125,551
2022-07-07T04:00:39,42.805,6.029,CST-1368DR,4670,5167,11788,01.125,551
2022-07-07T04:03:40,42.805,6.029,CST-1368DR,4670,5167,11789,01.125,551
2022-07-07T04:06:42,42.805,6.029,CST-1368DR,4670,5166,11785,01.126,551
2022-07-07T04:09:44,42.805,6.029,CST-1368DR,4670,5166,11785,01.126,551
2022-07-07T04:12:45,42.805,6.029,CST-1368DR,4670,5168,11790,01.124,551
2022-07-07T04:15:47,42.805,6.029,CST-1368DR,4670,5169,11792,01.123,551
2022-07-07T04:18:48,42.805,6.029,CST-1368DR,4670,5167,11788,01.125,551
2022-07-07T04:21:50,42.805,6.029,CST-1368DR,4670,5164,11781,01.127,551
2022-07-07T04:24:51,42.805,6.029,CST-1368DR,4670,5168,11789,01.125,551
2022-07-07T04:27:53,42.805,6.029,CST-1368DR,4670,5165,11782,01.127,551
2022-07-07T04:30:55,42.805,6.029,CST-1368DR,4670,5165,11783,01.127,551
2022-07-07T04:33:56,42.805,6.029,CST-1368DR,4670,5166,11785,01.126,551
2022-07-07T04:36:58,42.805,6.029,CST-1368DR,4670,5164,11780,01.128,551
2022-07-07T04:39:59,42.805,6.029,CST-1368DR,4670,5162,11776,01.129,551
2022-07-07T04:43:01,42.805,6.029,CST-1368DR,4670,5166,11786,01.126,551
2022-07-07T04:46:03,42.805,6.029,CST-1368DR,4670,5158,11768,01.132,551
2022-07-07T04:49:04,42.805,6.029,CST-1368DR,4670,5156,11762,01.134,551
2022-07-07T04:52:06,42.805,6.029,CST-1368DR,4670,5161,11774,01.130,551
2022-07-07T04:55:07,42.805,6.029,CST-1368DR,4670,5161,11775,01.129,551
2022-07-07T04:58:09,42.805,6.029,CST-1368DR,4670,5161,11773,01.130,551
2022-07-07T05:01:10,42.805,6.029,CST-1368DR,4670,5159,11769,01.131,551
2022-07-07T05:04:12,42.805,6.029,CST-1368DR,4670,5166,11785,01.126,551
2022-07-07T05:07:14,42.805,6.029,CST-1368DR,4670,5162,11777,01.129,551
2022-07-07T05:10:15,42.805,6.029,CST-1368DR,4670,5165,11782,01.127,551
2022-07-07T05:13:17,42.805,6.029,CST-1368DR,4670,5168,11790,01.124,551
2022-07-07T05:16:18,42.805,6.029,CST-1368DR,4670,5176,11809,01.118,551
2022-07-07T05:19:20,42.805,6.029,CST-1368DR,4670,5167,11788,01.125,551
2022-07-07T05:22:22,42.805,6.029,CST-1368DR,4670,5176,11809,01.118,551
2022-07-07T05:25:23,42.805,6.029,CST-1368DR,4670,5160,11773,01.130,551
2022-07-07T05:28:25,42.805,6.029,CST-1368DR,4670,5164,11780,01.128,551
2022-07-07T05:31:26,42.805,6.029,CST-1368DR,4670,5160,11771,01.131,551
2022-07-07T05:34:28,42.805,6.029,CST-1368DR,4670,5167,11788,01.125,551
2022-07-07T05:37:29,42.805,6.029,CST-1368DR,4670,5172,11800,01.121,551
2022-07-07T05:40:31,42.805,6.029,CST-1368DR,4670,5169,11792,01.123,551
2022-07-07T05:43:33,42.805,6.029,CST-1368DR,4670,5169,11793,01.123,551
2022-07-07T05:46:34,42.805,6.029,CST-1368DR,4670,5171,11796,01.122,551
2022-07-07T05:49:36,42.805,6.029,CST-1368DR,4670,5171,11797,01.122,551
2022-07-07T05:52:37,42.805,6.029,CST-1368DR,4670,5172,11799,01.121,551
2022-07-07T05:55:39,42.805,6.029,CST-1368DR,4670,5175,11805,01.119,551
2022-07-07T05:58:40,42.805,6.029,CST-1368DR,4670,5171,11796,01.122,551
2022-07-07T06:01:42,42.805,6.029,CST-1368DR,4670,5164,11781,01.127,551
2022-07-07T06:04:44,42.805,6.029,CST-1368DR,4670,5172,11799,01.121,551
2022-07-07T06:07:45,42.805,6.029,CST-1368DR,4670,5170,11794,01.123,551
2022-07-07T06:10:47,42.805,6.029,CST-1368DR,4670,5171,11796,01.122,551
2022-07-07T06:13:48,42.805,6.029,CST-1368DR,4670,5169,11793,01.123,551
2022-07-07T06:16:50,42.805,6.029,CST-1368DR,4670,5203,11869,01.097,551
2022-07-07T06:19:52,42.805,6.029,CST-1368DR,4670,5170,11796,01.122,551
2022-07-07T06:22:53,42.805,6.029,CST-1368DR,4670,5171,11797,01.122,551
2022-07-07T06:25:55,42.805,6.029,CST-1368DR,4670,5171,11797,01.122,551
2022-07-07T06:28:56,42.805,6.029,CST-1368DR,4670,5166,11786,01.126,551
2022-07-07T06:31:58,42.805,6.029,CST-1368DR,4670,5174,11805,01.119,551
2022-07-07T06:34:59,42.805,6.029,CST-1368DR,4670,5178,11813,01.116,551
2022-07-07T06:38:01,42.805,6.029,CST-1368DR,4670,5168,11790,01.124,551
2022-07-07T06:41:03,42.805,6.029,CST-1368DR,4670,5176,11808,01.118,551
2022-07-07T06:44:04,42.805,6.029,CST-1368DR,4670,5168,11791,01.124,551
2022-07-07T06:47:06,42.805,6.029,CST-1368DR,4670,5179,11816,01.115,551
2022-07-07T06:50:07,42.805,6.029,CST-1368DR,4670,5178,11814,01.116,551
2022-07-07T06:53:09,42.805,6.029,CST-1368DR,4670,5183,11824,01.113,551
2022-07-07T06:56:10,42.805,6.029,CST-1368DR,4670,5186,11830,01.111,551
2022-07-07T06:59:12,42.805,6.029,CST-1368DR,4670,5185,11830,01.111,551
2022-07-07T07:02:14,42.805,6.029,CST-1368DR,4670,5180,11817,01.115,551
2022-07-07T07:05:15,42.805,6.029,CST-1368DR,4670,5183,11824,01.113,551
2022-07-07T07:08:17,42.805,6.029,CST-1368DR,4670,5180,11817,01.115,551
2022-07-07T07:11:18,42.805,6.029,CST-1368DR,4670,5179,11815,01.116,551
2022-07-07T07:14:20,42.805,6.029,CST-1368DR,4670,5175,11806,01.119,551
2022-07-07T07:17:22,42.805,6.029,CST-1368DR,4670,5178,11813,01.116,551
2022-07-07T07:20:23,42.805,6.029,CST-1368DR,4670,5174,11803,01.120,551
2022-07-07T07:23:25,42.805,6.029,CST-1368DR,4670,5172,11799,01.121,551
2022-07-07T07:26:26,42.805,6.029,CST-1368DR,4670,5171,11797,01.122,551
2022-07-07T07:29:28,42.805,6.029,CST-1368DR,4670,5184,11826,01.112,551
2022-07-07T07:32:29,42.805,6.029,CST-1368DR,4670,5182,11822,01.113,551
2022-07-07T07:35:31,42.805,6.029,CST-1368DR,4671,5199,11859,01.101,551
2022-07-07T07:38:33,42.805,6.029,CST-1368DR,4670,5175,11806,01.119,551
2022-07-07T07:41:34,42.805,6.029,CST-1368DR,4670,5166,11786,01.126,551
2022-07-07T07:44:36,42.805,6.029,CST-1368DR,4670,5178,11814,01.116,551
2022-07-07T07:47:37,42.805,6.029,CST-1368DR,4670,5175,11807,01.118,551
2022-07-07T07:50:39,42.805,6.029,CST-1368DR,4670,5180,11818,01.115,551
2022-07-07T07:53:40,42.805,6.029,CST-1368DR,4670,5172,11799,01.121,551
2022-07-07T07:56:42,42.805,6.029,CST-1368DR,4670,5169,11792,01.123,551
2022-07-07T07:59:44,42.805,6.029,CST-1368DR,4670,5173,11801,01.120,551
2022-07-07T08:02:45,42.805,6.029,CST-1368DR,4670,5173,11801,01.120,551
2022-07-07T08:05:47,42.805,6.029,CST-1368DR,4670,5172,11800,01.121,551
2022-07-07T08:08:48,42.805,6.029,CST-1368DR,4670,5181,11819,01.114,551
2022-07-07T08:11:50,42.805,6.029,CST-1368DR,4670,5175,11807,01.118,551
2022-07-07T08:14:52,42.805,6.029,CST-1368DR,4670,5176,11808,01.118,551
2022-07-07T08:17:53,42.805,6.029,CST-1368DR,4670,5174,11804,01.119,551
2022-07-07T08:20:55,42.805,6.029,CST-1368DR,4670,5173,11801,01.120,551
2022-07-07T08:23:56,42.805,6.029,CST-1368DR,4670,5178,11814,01.116,551
2022-07-07T08:26:58,42.805,6.029,CST-1368DR,4670,5180,11818,01.115,551
2022-07-07T08:29:59,42.805,6.029,CST-1368DR,4670,5171,11798,01.121,551
2022-07-07T08:33:01,42.805,6.029,CST-1368DR,4670,5166,11785,01.126,551
2022-07-07T08:36:03,42.805,6.029,CST-1368DR,4670,5167,11788,01.125,551
2022-07-07T08:39:04,42.805,6.029,CST-1368DR,4670,5171,11796,01.122,551
2022-07-07T08:42:06,42.805,6.029,CST-1368DR,4670,5170,11795,01.122,551
2022-07-07T08:45:07,42.805,6.029,CST-1368DR,4670,5165,11784,01.126,551
2022-07-07T08:48:09,42.805,6.029,CST-1368DR,4670,5167,11788,01.125,551
2022-07-07T08:51:11,42.805,6.029,CST-1368DR,4670,5165,11784,01.126,551
2022-07-07T08:54:12,42.805,6.029,CST-1368DR,4670,5164,11782,01.127,551
2022-07-07T08:57:14,42.805,6.029,CST-1368DR,4670,5168,11790,01.124,551
2022-07-07T09:00:15,42.805,6.029,CST-1368DR,4670,5164,11780,01.128,551
2022-07-07T09:03:17,42.805,6.029,CST-1368DR,4670,5165,11784,01.126,551
2022-07-07T09:06:18,42.805,6.029,CST-1368DR,4670,5170,11795,01.122,551
2022-07-07T09:09:20,42.805,6.029,CST-1368DR,4670,5163,11780,01.128,551
2022-07-07T09:12:22,42.805,6.029,CST-1368DR,4670,5158,11768,01.132,551
2022-07-07T09:15:23,42.805,6.029,CST-1368DR,4670,5165,11782,01.127,551
2022-07-07T09:18:25,42.805,6.029,CST-1368DR,4670,5166,11785,01.126,551
2022-07-07T09:21:26,42.805,6.029,CST-1368DR,4670,5165,11784,01.126,551
2022-07-07T09:24:28,42.805,6.029,CST-1368DR,4670,5161,11773,01.130,551
2022-07-07T09:27:29,42.805,6.029,CST-1368DR,4670,5165,11784,01.126,551
2022-07-07T09:30:31,42.805,6.029,CST-1368DR,4670,5160,11772,01.130,551
2022-07-07T09:33:33,42.805,6.029,CST-1368DR,4670,5157,11766,01.132,551
2022-07-07T09:36:34,42.805,6.029,CST-1368DR,4670,5159,11769,01.131,551
2022-07-07T09:39:36,42.805,6.029,CST-1368DR,4670,5155,11761,01.134,551
2022-07-07T09:42:37,42.805,6.029,CST-1368DR,4670,5158,11768,01.132,551
2022-07-07T09:45:39,42.805,6.029,CST-1368DR,4670,5157,11765,01.133,551
2022-07-07T09:48:41,42.805,6.029,CST-1368DR,4670,5157,11764,01.133,551
2022-07-07T09:51:42,42.805,6.029,CST-1368DR,4670,5168,11790,01.124,551
2022-07-07T09:54:44,42.805,6.029,CST-1368DR,4670,5162,11776,01.129,551
2022-07-07T09:57:45,42.805,6.029,CST-1368DR,4670,5170,11796,01.122,551
2022-07-07T10:00:47,42.805,6.029,CST-1368DR,4670,5159,11769,01.131,551
2022-07-07T10:03:48,42.805,6.029,CST-1368DR,4670,5161,11775,01.129,551
2022-07-07T10:06:50,42.805,6.029,CST-1368DR,4670,5154,11759,01.135,551
2022-07-07T10:09:52,42.805,6.029,CST-1368DR,4670,5164,11782,01.127,551
2022-07-07T10:12:53,42.805,6.029,CST-1368DR,4670,5163,11780,01.128,551
2022-07-07T10:15:55,42.805,6.029,CST-1368DR,4670,5159,11770,01.131,551
2022-07-07T10:18:56,42.805,6.029,CST-1368DR,4670,5156,11762,01.134,551
2022-07-07T10:21:58,42.805,6.029,CST-1368DR,4670,5159,11769,01.131,551
2022-07-07T10:24:59,42.805,6.029,CST-1368DR,4670,5158,11767,01.132,551
2022-07-07T10:28:01,42.805,6.029,CST-1368DR,4670,5158,11768,01.132,551
2022-07-07T10:31:03,42.805,6.029,CST-1368DR,4670,5161,11773,01.130,551
2022-07-07T10:34:04,42.805,6.029,CST-1368DR,4670,5163,11778,01.128,551
2022-07-07T10:37:06,42.805,6.029,CST-1368DR,4670,5158,11768,01.132,551
2022-07-07T10:40:07,42.805,6.029,CST-1368DR,4670,5169,11792,01.123,551
2022-07-07T10:43:09,42.805,6.029,CST-1368DR,4670,5148,11745,01.139,551
2022-07-07T10:46:11,42.805,6.029,CST-1368DR,4670,5165,11782,01.127,551
2022-07-07T10:49:12,42.805,6.029,CST-1368DR,4670,5157,11765,01.133,551
2022-07-07T10:52:14,42.805,6.029,CST-1368DR,4670,5156,11763,01.133,551
2022-07-07T10:55:15,42.805,6.029,CST-1368DR,4670,5157,11764,01.133,551
2022-07-07T10:58:17,42.805,6.029,CST-1368DR,4670,5155,11761,01.134,551
2022-07-07T11:01:18,42.805,6.029,CST-1368DR,4670,5162,11777,01.129,551
2022-07-07T11:04:20,42.805,6.029,CST-1368DR,4670,5169,11792,01.123,551
2022-07-07T11:07:22,42.805,6.029,CST-1368DR,4670,5159,11769,01.131,551
2022-07-07T11:10:23,42.805,6.029,CST-1368DR,4670,5160,11771,01.131,551
2022-07-07T11:13:25,42.805,6.029,CST-1368DR,4670,5163,11780,01.128,551
2022-07-07T11:16:26,42.805,6.029,CST-1368DR,4670,5157,11765,01.133,551
2022-07-07T11:19:28,42.805,6.029,CST-1368DR,4670,5157,11764,01.133,551
2022-07-07T11:22:29,42.805,6.029,CST-1368DR,4670,5158,11767,01.132,551
2022-07-07T11:25:31,42.805,6.029,CST-1368DR,4670,5158,11767,01.132,551
2022-07-07T11:28:33,42.805,6.029,CST-1368DR,4670,5155,11760,01.134,551
2022-07-07T11:31:34,42.805,6.029,CST-1368DR,4670,5161,11773,01.130,551
2022-07-07T11:34:36,42.805,6.029,CST-1368DR,4670,5158,11768,01.132,551
2022-07-07T11:37:37,42.805,6.029,CST-1368DR,4670,5156,11763,01.133,551
2022-07-07T11:40:39,42.805,6.029,CST-1368DR,4670,5157,11765,01.133,551
2022-07-07T11:43:41,42.805,6.029,CST-1368DR,4670,5156,11763,01.133,551
2022-07-07T11:46:42,42.805,6.029,CST-1368DR,4670,5153,11756,01.136,551
2022-07-07T11:49:44,42.805,6.029,CST-1368DR,4670,5157,11764,01.133,551
2022-07-07T11:52:45,42.805,6.029,CST-1368DR,4670,5155,11761,01.134,551
2022-07-07T11:55:47,42.805,6.029,CST-1368DR,4670,5155,11760,01.134,551
2022-07-07T11:58:48,42.805,6.029,CST-1368DR,4670,5150,11749,01.138,551
2022-07-07T12:01:50,42.805,6.029,CST-1368DR,4670,5156,11762,01.134,551
2022-07-07T12:04:52,42.805,6.029,CST-1368DR,4670,5158,11768,01.132,551
2022-07-07T12:07:53,42.805,6.029,CST-1368DR,4670,5161,11775,01.129,551
2022-07-07T12:10:55,42.805,6.029,CST-1368DR,4670,5161,11773,01.130,551
2022-07-07T12:13:56,42.805,6.029,CST-1368DR,4670,5159,11770,01.131,551
2022-07-07T12:16:58,42.805,6.029,CST-1368DR,4670,5156,11763,01.133,551
2022-07-07T12:19:59,42.805,6.029,CST-1368DR,4670,5159,11769,01.131,551
2022-07-07T12:23:01,42.805,6.029,CST-1368DR,4670,5154,11759,01.135,551
2022-07-07T12:26:03,42.805,6.029,CST-1368DR,4670,5162,11776,01.129,551
2022-07-07T12:29:04,42.805,6.029,CST-1368DR,4670,5158,11768,01.132,551
2022-07-07T12:32:06,42.805,6.029,CST-1368DR,4670,5169,11793,01.123,551
2022-07-07T12:35:07,42.805,6.029,CST-1368DR,4670,5163,11778,01.128,551
2022-07-07T12:38:09,42.805,6.029,CST-1368DR,4670,5156,11762,01.134,551
2022-07-07T12:41:11,42.805,6.029,CST-1368DR,4670,5159,11770,01.131,551
2022-07-07T12:44:12,42.805,6.029,CST-1368DR,4670,5165,11783,01.127,551
2022-07-07T12:47:14,42.805,6.029,CST-1368DR,4670,5159,11770,01.131,551
2022-07-07T12:50:15,42.805,6.029,CST-1368DR,4670,5161,11774,01.130,551
2022-07-07T12:53:17,42.805,6.029,CST-1368DR,4670,5159,11770,01.131,551
2022-07-07T12:56:18,42.805,6.029,CST-1368DR,4670,5162,11777,01.129,551
2022-07-07T12:59:20,42.805,6.029,CST-1368DR,4670,5156,11763,01.133,551
2022-07-07T13:02:22,42.805,6.029,CST-1368DR,4670,5147,11743,01.140,551
2022-07-07T13:05:23,42.805,6.029,CST-1368DR,4670,5151,11752,01.137,551
2022-07-07T13:08:25,42.805,6.029,CST-1368DR,4670,5156,11762,01.134,551
2022-07-07T13:11:26,42.805,6.029,CST-1368DR,4670,5155,11760,01.134,551
2022-07-07T13:14:28,42.805,6.029,CST-1368DR,4670,5161,11774,01.130,551
2022-07-07T13:17:30,42.805,6.029,CST-1368DR,4670,5169,11792,01.123,551
2022-07-07T13:20:31,42.805,6.029,CST-1368DR,4670,5155,11761,01.134,551
2022-07-07T13:23:33,42.805,6.029,CST-1368DR,4670,5155,11761,01.134,551
2022-07-07T13:26:34,42.805,6.029,CST-1368DR,4670,5158,11767,01.132,551
2022-07-07T13:29:36,42.805,6.029,CST-1368DR,4670,5159,11769,01.131,551
2022-07-07T13:32:37,42.805,6.029,CST-1368DR,4670,5154,11757,01.135,551
2022-07-07T13:35:39,42.805,6.029,CST-1368DR,4670,5148,11745,01.139,551
2022-07-07T13:38:41,42.805,6.029,CST-1368DR,4670,5151,11752,01.137,551
2022-07-07T13:41:42,42.805,6.029,CST-1368DR,4670,5152,11755,01.136,551
2022-07-07T13:44:44,42.805,6.029,CST-1368DR,4670,5156,11763,01.133,551
2022-07-07T13:47:45,42.805,6.029,CST-1368DR,4670,5158,11767,01.132,551
2022-07-07T13:50:47,42.805,6.029,CST-1368DR,4670,5162,11776,01.129,551
2022-07-07T13:53:48,42.805,6.029,CST-1368DR,4670,5164,11780,01.128,551
2022-07-07T13:56:50,42.805,6.029,CST-1368DR,4670,5156,11762,01.134,551
2022-07-07T13:59:52,42.805,6.029,CST-1368DR,4670,5150,11749,01.138,551
2022-07-07T14:02:53,42.805,6.029,CST-1368DR,4670,5152,11755,01.136,551
2022-07-07T14:05:55,42.805,6.029,CST-1368DR,4670,5172,11800,01.121,551
2022-07-07T14:08:56,42.805,6.029,CST-1368DR,4670,5162,11776,01.129,551
2022-07-07T14:11:58,42.805,6.029,CST-1368DR,4670,5171,11796,01.122,551
2022-07-07T14:15:00,42.805,6.029,CST-1368DR,4670,5161,11773,01.130,550
2022-07-07T14:18:01,42.805,6.029,CST-1368DR,4670,5162,11776,01.129,551
2022-07-07T14:21:03,42.805,6.029,CST-1368DR,4670,5160,11771,01.131,551
2022-07-07T14:24:04,42.805,6.029,CST-1368DR,4670,5162,11777,01.129,551
2022-07-07T14:27:06,42.805,6.029,CST-1368DR,4670,5162,11777,01.129,551
2022-07-07T14:30:07,42.805,6.029,CST-1368DR,4670,5163,11778,01.128,551
2022-07-07T14:33:09,42.805,6.029,CST-1368DR,4670,5174,11804,01.119,551
2022-07-07T14:36:11,42.805,6.029,CST-1368DR,4670,5181,11819,01.114,551
2022-07-07T14:39:12,42.805,6.029,CST-1368DR,4670,5202,11869,01.097,551
2022-07-07T14:42:14,42.805,6.029,CST-1368DR,4670,5179,11815,01.116,551
2022-07-07T14:45:15,42.805,6.029,CST-1368DR,4670,5191,11842,01.107,551
2022-07-07T14:48:17,42.805,6.029,CST-1368DR,4670,5174,11805,01.119,551
2022-07-07T14:51:18,42.805,6.029,CST-1368DR,4670,5166,11786,01.126,551
2022-07-07T14:54:20,42.805,6.029,CST-1368DR,4670,5164,11781,01.127,551
2022-07-07T14:57:22,42.805,6.029,CST-1368DR,4670,5190,11840,01.107,551
2022-07-07T15:00:23,42.805,6.029,CST-1368DR,4670,5188,11836,01.109,551
2022-07-07T15:03:25,42.805,6.029,CST-1368DR,4670,5196,11854,01.103,551
2022-07-07T15:06:26,42.805,6.029,CST-1368DR,4670,5175,11805,01.119,551
2022-07-07T15:09:28,42.805,6.029,CST-1368DR,4670,5171,11797,01.122,551
2022-07-07T15:12:30,42.805,6.029,CST-1368DR,4670,5166,11785,01.126,551
2022-07-07T15:15:31,42.805,6.029,CST-1368DR,4670,5182,11822,01.113,551
2022-07-07T15:18:33,42.805,6.029,CST-1368DR,4670,5171,11797,01.122,551
2022-07-07T15:21:34,42.805,6.029,CST-1368DR,4670,5166,11786,01.126,551
2022-07-07T15:24:36,42.805,6.029,CST-1368DR,4670,5165,11782,01.127,551
2022-07-07T15:27:37,42.805,6.029,CST-1368DR,4670,5169,11793,01.123,551
2022-07-07T15:30:39,42.805,6.029,CST-1368DR,4670,5165,11782,01.127,551
2022-07-07T15:33:41,42.805,6.029,CST-1368DR,4670,5190,11840,01.107,551
2022-07-07T15:36:42,42.805,6.029,CST-1368DR,4670,5191,11842,01.107,551
2022-07-07T15:39:44,42.805,6.029,CST-1368DR,4670,5172,11799,01.121,551
2022-07-07T15:42:45,42.805,6.029,CST-1368DR,4670,5160,11773,01.130,551
2022-07-07T15:45:47,42.805,6.029,CST-1368DR,4670,5163,11780,01.128,551
2022-07-07T15:48:48,42.805,6.029,CST-1368DR,4670,5157,11764,01.133,551
2022-07-07T15:51:50,42.805,6.029,CST-1368DR,4670,5158,11768,01.132,551
2022-07-07T15:54:52,42.805,6.029,CST-1368DR,4670,5158,11768,01.132,551
2022-07-07T15:57:53,42.805,6.029,CST-1368DR,4670,5167,11788,01.125,551
2022-07-07T16:00:55,42.805,6.029,CST-1368DR,4670,5163,11780,01.128,551
2022-07-07T16:03:56,42.805,6.029,CST-1368DR,4670,5166,11786,01.126,551
2022-07-07T16:06:58,42.805,6.029,CST-1368DR,4670,5159,11769,01.131,551
2022-07-07T16:10:00,42.805,6.029,CST-1368DR,4670,5171,11796,01.122,551
2022-07-07T16:13:01,42.805,6.029,CST-1368DR,4670,5161,11773,01.130,551
2022-07-07T16:16:03,42.805,6.029,CST-1368DR,4670,5161,11774,01.130,551
2022-07-07T16:19:04,42.805,6.029,CST-1368DR,4670,5185,11829,01.111,551
2022-07-07T16:22:06,42.805,6.029,CST-1368DR,4670,5165,11784,01.126,551
2022-07-07T16:25:07,42.805,6.029,CST-1368DR,4670,5186,11832,01.110,551
2022-07-07T16:28:09,42.805,6.029,CST-1368DR,4670,5166,11786,01.126,551
2022-07-07T16:31:11,42.805,6.029,CST-1368DR,4670,5168,11790,01.124,551
2022-07-07T16:34:12,42.805,6.029,CST-1368DR,4670,5181,11820,01.114,551
2022-07-07T16:37:14,42.805,6.029,CST-1368DR,4670,5174,11804,01.119,551